Home   Weather   Kapurthala   Past weeks

Flag for India Past Weather in Kapurthala, Punjab, India — Yesterday and Last 2 Weeks

Now
81 °F

Fog.


Feels Like: 89 °F
Forecast: 83 / 93 °F
Wind: 5 mph from East

Location: Amritsar Airport

Current Time: Jul 23, 2017 at 8:19:25 am

Latest Report: Jul 23, 2017 at 6:30 am


Visibility: 3 mi

Pressure: 29.56 "Hg

Humidity: 100%

Dew Point: 81 °F

Location of KapurthalaLocation

Past Weather in Kapurthala — Graph

°F

Kapurthala Temperature Yesterday

Maximum temperature yesterday: 90 °F (at 1:30 pm)
Minimum temperature yesterday: 79 °F (at 9:00 am)
Average temperature yesterday: 85 °F

High & Low Weather Summary for the Past Weeks

 TemperatureHumidityPressure
High99 °F (Jul 9, 2:00 pm)100% (Jul 8, 6:30 am)29.68 "Hg (Jul 8, 6:30 am)
Low73 °F (Jul 11, 8:00 pm)53% (Jul 8, 2:00 pm)29.42 "Hg (Jul 19, 5:00 pm)
Average87 °F91%29.55 "Hg
* Reported Jul 8 6:30 am — Jul 23 6:30 am, Kapurthala. Weather by CustomWeather, © 2017

Note: Actual official high and low records may vary slightly from our data, if they occured in-between our weather recording intervals... More about our weather records

Advertising

Kapurthala Weather History for the Previous 24 Hours

Scroll right to see more
 ConditionsComfort  
Time TempWeatherWind HumidityBarometerVisibility
6:30 am
Sun, Jul 23
81 °FFog.5 mph100%29.56 "Hg3 mi
6:00 am81 °FFog.7 mph100%29.53 "Hg2 mi
12:30 am84 °FFog.No wind100%29.56 "Hg2 mi
12:00 am84 °FFog.No wind100%29.56 "Hg2 mi
11:30 pm
Sat, Jul 22
84 °FFog.3 mph100%29.56 "Hg2 mi
11:00 pm84 °FFog.2 mph100%29.56 "Hg2 mi
10:30 pm84 °FFog.2 mph100%29.56 "Hg2 mi
10:00 pm84 °FFog.No wind100%29.56 "Hg2 mi
9:30 pm86 °FFog.No wind100%29.56 "Hg2 mi
9:00 pm86 °FFog.2 mph100%29.53 "Hg2 mi
8:30 pm86 °FFog.7 mph100%29.53 "Hg2 mi
8:00 pm86 °FFog.6 mph100%29.50 "Hg2 mi
7:30 pm86 °FFog.7 mph100%29.50 "Hg3 mi
7:00 pm88 °FFog.6 mph100%29.50 "Hg3 mi
6:30 pm86 °FFog.5 mph100%29.50 "Hg3 mi
6:00 pm86 °FFog.6 mph100%29.50 "Hg3 mi
5:30 pm86 °FFog.6 mph100%29.50 "Hg3 mi
5:00 pm88 °FFog.7 mph100%29.50 "Hg3 mi
4:30 pm88 °FFog.7 mph100%29.50 "Hg3 mi
4:00 pm90 °FFog.7 mph100%29.53 "Hg3 mi
3:30 pm90 °FFog.7 mph100%29.53 "Hg3 mi
3:00 pm90 °FFog.7 mph94%29.53 "Hg3 mi
2:30 pm90 °FFog.7 mph89%29.56 "Hg3 mi
1:30 pm90 °FFog.6 mph89%29.56 "Hg3 mi
11:30 am84 °FFog.7 mph100%29.62 "Hg3 mi
11:00 am86 °FFog.7 mph100%29.59 "Hg3 mi
10:00 am81 °FThunderstorms. Broken clouds.8 mph100%29.56 "Hg2 mi
9:30 am79 °FThunderstorms. More clouds than sun.10 mph100%29.59 "Hg2 mi
9:00 am79 °FThunderstorms. More clouds than sun.5 mph100%29.56 "Hg2 mi
8:30 am81 °FThunderstorms. More clouds than sun.5 mph100%29.56 "Hg2 mi
8:00 am81 °FThunderstorms. More clouds than sun.3 mph100%29.56 "Hg2 mi
Weather by CustomWeather, © 2017

See weather overviewHow to use our weather pages